Regional Weather Roundup
Issued by NWS

Home | Current Version | Previous Version | Graphics & Text | Print | Product List | Glossary On
Versions: 1 2 3 4 5 6 7 8 9 10 11 12 13 14 15 16 17 18 19 20 21 22 23 24 25 26 27 28 29 30 31 32 33 34 35 36 37 38 39 40 41 42 43 44 45 46 47 48 49 50
000
ASUS43 KMPX 230210
RWRMN
WEATHER ROUNDUP FOR MINNESOTA
NATIONAL WEATHER SERVICE TWIN CITIES/CHANHASSEN MN
900 PM CDT MON SEP 22 2014


NOTE: "FAIR" INDICATES FEW OR NO CLOUDS BELOW 12,000 FEET WITH NO
SIGNIFICANT WEATHER AND/OR OBSTRUCTIONS TO VISIBILITY. N/A MEANS
CURRENT SKY AND/OR WEATHER CONDITIONS ARE NOT AVAILABLE.

MNZ060>063-068>070-230300-
   Twin Cities Metro

CITY           SKY/WX    TMP DP  RH WIND       PRES   REMARKS
TWIN CITIES    CLEAR     64  50  60 S3        30.16S
ST PAUL        CLEAR     57  53  86 E3        30.17R
CRYSTAL        CLEAR     57  51  80 CALM      30.15R
BLAINE         CLEAR     55  54  94 CALM      30.16R
LAKEVILLE      CLEAR     54  52  94 CALM      30.17S
EDEN PRAIRIE   CLEAR     60  52  74 S5        30.15R
SOUTH ST PAUL  CLEAR     59  52  76 CALM      30.17R
LAKE ELMO      FAIR      54  52  94 CALM      30.18R
$$
MNZ001>005-007-008-013>017-022>024-027-028-230300-
   Northwest Minnesota

CITY           SKY/WX    TMP DP  RH WIND       PRES   REMARKS
BEMIDJI        CLEAR     60  49  68 S3        30.11R
HALLOCK        CLEAR     57  50  77 SE8       30.02R
ROSEAU         CLEAR     57  52  82 S5        30.05S
WARROAD        CLEAR     55  52  88 CALM      30.06R
THIEF RVR FALL CLEAR     57  48  72 S5        30.06S
CROOKSTON      CLEAR     57  50  77 SE8       30.05S
FOSSTON        CLEAR     57  54  88 SE6       30.09S
DETROIT LAKES  CLEAR     59  50  72 S6        30.12R
MOORHEAD       CLEAR     63  50  63 SE6       30.07R
PARK RAPIDS    CLEAR     57  49  74 S5        30.12R
MAHNOMEN       FAIR      56  50  78 SE6       30.09R
$$
MNZ006-009>011-018-025>026-230300-
   North Central Minnesota

CITY           SKY/WX    TMP DP  RH WIND       PRES   REMARKS
BAUDETTE       CLEAR     57  50  77 CALM      30.07R
FLAG ISLAND    CLEAR     63  52  67 SW6       30.04R
INTL FALLS     CLEAR     49  47  93 CALM      30.08R
WASKISH        CLEAR     52  48  87 CALM      30.09S
BIG FORK       CLEAR     52  50  93 CALM      30.12R
LONGVILLE      CLEAR     50  48  93 CALM      30.12S
GRAND RAPIDS   CLEAR     54  46  76 S5        30.12R
CRANE LAKE     CLEAR     48  46  93 CALM      30.10S
ORR            CLEAR     55  48  76 CALM      30.08R
COOK           CLEAR     54  52  94 SW1       30.11R
WALKER         FAIR      53  50  89 CALM      30.11S
$$
MNZ012-019>021-037-230300-
   Northeast Minnesota

CITY           SKY/WX    TMP DP  RH WIND       PRES   REMARKS
DULUTH         CLEAR     58  49  72 W6        30.13R
ELY            CLEAR     55  48  76 SW5       30.11R
HIBBING        CLEAR     50  47  89 CALM      30.12R
EVELETH        CLEAR     52  50  93 CALM      30.13R
DULUTH HARBOR  CLEAR     63  54  72 SW9       30.12R
TWO HARBORS    CLEAR     55  48  76 W3        30.10R
SILVER BAY     CLEAR     52  52 100 CALM      30.09R
GRAND MARAIS     N/A     50  49  96 W3        30.06R
G MARAIS ARPRT CLEAR     54  46  76 SW3       30.10S
$$
MNZ029>031-032-039>041-046>048-054>057-064-230300-
   West Central Minnesota

CITY           SKY/WX    TMP DP  RH WIND       PRES   REMARKS
FERGUS FALLS   CLEAR     61  46  59 SE7       30.09S
WHEATON        CLEAR     59  48  67 S8        30.10S
MORRIS         CLEAR     55  50  82 SE5       30.10S
ALEXANDRIA     CLEAR     59  50  72 SE7       30.14R
ELBOW LAKE     FAIR      60  50  70 SE6       30.10S
WADENA         CLEAR     54  48  82 CALM      30.12S
GLENWOOD       CLEAR     55  52  88 SE5       30.14R
APPLETON       CLEAR     61  48  63 S5        30.11R
BENSON         CLEAR     57  50  77 S5        30.12S
ORTONVILLE     CLEAR     61  48  63 S5        30.10S
MADISON        CLEAR     57  50  77 S5        30.12R
WILLMAR        FAIR      57  46  67 SE3       30.15R
$$
MNZ033>034-036-042>043-049>051-058-059-230300-
   Central Minnesota

CITY           SKY/WX    TMP DP  RH WIND       PRES   REMARKS
ST CLOUD       CLEAR     57  51  80 CALM      30.15R
SAUK CENTRE    FAIR      55  49  81 CALM      30.14R
PAYNESVILLE    CLEAR     56  51  81 E5        30.14S
AITKIN         CLEAR     55  48  76 CALM      30.12S
PINE RIVER     CLEAR     52  50  93 CALM      30.16R
BRAINERD       CLEAR     53  51  93 CALM      30.14R
STAPLES        CLEAR     54  48  82 CALM      30.13S
LONG PRAIRIE   FAIR      55  50  82 CALM      30.14S
LITTLE FALLS   CLEAR     52  48  87 CALM      30.14S
LITCHFIELD     CLEAR     57  54  88 SE3       30.16R
BUFFALO        CLEAR     57  51  79 CALM      30.16S
MAPLE LAKE     CLEAR     55  53  96 CALM      30.16S
$$
MNZ037-044-045-052-053-230300-
   East Central Minnesota

CITY           SKY/WX    TMP DP  RH WIND       PRES   REMARKS
PRINCETON      CLEAR     54  50  87 E1        30.16R
MORA           CLEAR     50  48  93 CALM      30.17S
CAMBRIDGE      CLEAR     57  48  72 CALM      30.14S
RUSH CITY      PTCLDY    53  50  89 CALM      30.16R
MOOSE LAKE     CLEAR     52  50  93 CALM      30.13R
HINCKLEY       FAIR      50  50 100 CALM      30.15R
CLOQUET        CLEAR     61  48  63 SW5       30.14R
MCGREGOR       CLEAR     57  52  82 CALM      30.14R
$$
MNZ071>073-080-081-089-090-097-098-230300-
   Southwest Minnesota

CITY           SKY/WX    TMP DP  RH WIND       PRES   REMARKS
MONTEVIDEO     CLEAR     61  48  63 SW5       30.13S
GRANITE FALLS  CLEAR     54  48  78 S7        30.15S
CANBY          CLEAR     61  48  63 S6        30.14R
MARSHALL       CLEAR     57  46  67 SW8       30.13S
REDWOOD FALLS  CLEAR     59  49  69 S8        30.14R
OLIVIA         CLEAR     57  46  67 S5        30.14R
PIPESTONE      PTCLDY    61  46  59 S8        30.15S
WINDOM         CLEAR     61  48  63 S6        30.17S
WORTHINGTON    PTCLDY    57  48  72 S6        30.18S
JACKSON        CLEAR     55  48  76 S6        30.19S
TRACY          CLEAR     60  49  67 CALM      30.16R
SLAYTON        FAIR      55  48  76 CALM      30.17R
$$
MNZ065>067-074>077-082>085-091>093-230300-
   South Central Minnesota

CITY           SKY/WX    TMP DP  RH WIND       PRES   REMARKS
MANKATO        CLEAR     61  45  55 S5        30.17S
NEW ULM        CLEAR     61  52  72 S7        30.16R
ST JAMES       CLEAR     61  48  63 S6        30.18S
FAIRMONT       CLEAR     55  46  71 S6        30.18S
GLENCOE        CLEAR     59  48  67 CALM      30.15S
FARIBAULT      CLEAR     55  48  76 S3        30.18S
OWATONNA       CLEAR     55  50  82 SE6       30.19R
WASECA         CLEAR     54  45  71 CALM      30.20S
ALBERT LEA     CLEAR     57  55  94 S3        30.19S
$$
MNZ078>079-086>088-094>096-230300-
   Southeast Minnesota

CITY           SKY/WX    TMP DP  RH WIND       PRES   REMARKS
ROCHESTER      CLEAR     54  49  83 S6        30.21S
RED WING       CLEAR     54  52  94 CALM      30.17S
STANTON        CLEAR     54  50  87 CALM      30.17R
DODGE CENTER   CLEAR     54  48  82 S5        30.20R
WINONA         CLEAR     55  54  94 CALM      30.20R
AUSTIN         CLEAR     57  48  72 CALM      30.20R
PRESTON        CLEAR     57  53  86 SW5       30.21S
$$
ABBREVIATIONS USED IN REMARKS
   TC - TEMPERATURES IN CELSIUS
  WCI - WIND CHILL INDEX
   HX - HEAT INDEX
  VSB - VISIBILITY
$$



USA.gov is the U.S. government's official web portal to all federal, state and local government web resources and services.